Hourly Data Report for September 28, 2017

All times are specified in Local Standard Time (LST). Add 1 hour to adjust for Daylight Saving Time where and when it is observed.

EDMUNDSTON
NEW BRUNSWICK

47°25'00.000" N
68°19'28.040" W
154.20 m
8101303
71590
ERM

Download Data

Hourly Data (September 2017)
Hourly Data Report for September 28, 2017
Temp Definition
°C
Dew Point Temp Definition
°C
Rel Hum Definition
%
Wind Dir Definition
10's deg

Wind Spd Definition
km/h
Visibility Definition
km
Stn Press Definition
kPa
Hmdx Definition


Wind Chill Definition


Weather Definition


TIME
00:00 16.7 15.8 94 7 1   98.33     LegendNANA
01:00 16.4 15.5 94 12 3   98.34     LegendNANA
02:00 16.3 12.8 80 29 12   98.42     LegendNANA
03:00 14.3 11.8 85 32 7   98.45     LegendNANA
04:00 12.6 11.4 92   0   98.48     LegendNANA
05:00 11.0 10.2 94   0   98.54     LegendNANA
06:00 10.3 9.5 95 33 2   98.55     LegendNANA
07:00 9.8 9.0 95 32 4   98.56     LegendNANA
08:00 11.5 10.0 91 28 6   98.59     LegendNANA
09:00 12.7 8.4 75 31 13   98.61     LegendNANA
10:00 13.7 6.8 63 30 17   98.63     LegendNANA
11:00 12.6 5.5 62 32 15   98.67     LegendNANA
12:00 12.5 5.6 63 30 13   98.72     LegendNANA
13:00 12.2 5.7 64 31 14   98.74     LegendNANA
14:00 12.9 4.3 56 31 17   98.75     LegendNANA
15:00 13.1 4.5 56 30 14   98.78     LegendNANA
16:00 12.4 4.3 58 30 18   98.85     LegendNANA
17:00 12.0 4.1 58 31 18   98.89     LegendNANA
18:00 10.4 3.7 63 30 12   98.93     LegendNANA
19:00 10.2 3.6 63 31 13   98.93     LegendNANA
20:00 9.8 3.5 65 31 12   98.98     LegendNANA
21:00 9.5 3.5 66 32 11   98.98     LegendNANA
22:00 9.1 3.0 65 32 12   99.02     LegendNANA
23:00 8.6 3.0 68 32 12   99.06     LegendNANA

Notes on Data Quality.

Legend

  • E = Estimated
  • M = Missing
  • NA = Not Available
  • ‡ = Partner data that is not subject to review by the National Climate Archives
Date modified: